Flag for U.S.A. Weather past 2 weeks in Cheyenne, Wyoming, U.S.A.

Now
55 °F

Clear.


Feels Like: 53 °F
Forecast: 53 / 79 °F
Wind: 8 mph from West

Location: Cheyenne Airport

Current Time: Aug 2, 2014 at 3:30:53 AM

Latest Report: Aug 2, 2014 at 2:53 AM


Visibility: 10 mi

Pressure: 30.07 "Hg

Humidity: 74%

Dew point: 47 °F

Location of CheyenneLocation

Historic Weather in Cheyenne — Graph

°F

Cheyenne temperature yesterday

Maximum temperature yesterday: 77 °F (at 2:53 PM)
Minimum temperature yesterday: 51 °F (at 4:53 AM)
Average temperature yesterday: 66 °F

Past Weeks' High & Low Weather Summary

 TemperatureHumidityPressure
High91 °F (Jul 20, 4:53 PM)97% (Jul 29, 8:53 PM)30.43 "Hg (Jul 29, 8:53 PM)
Low50 °F (Jul 31, 4:53 AM)14% (Jul 19, 3:53 PM)29.74 "Hg (Jul 20, 12:53 AM)
Average70 °F53%29.99 "Hg
* Reported Jul 18 1:53 AM — Aug 2 1:53 AM, Cheyenne, Weather by CustomWeather, © 2014

Note: Actual official high and low records may vary slightly from our data, if they occured in-between our weather recording intervals... More about our weather records

Advertising

Cheyenne weather history for previous 24 hours

 ConditionsComfort  
Time TempWeatherWind HumidityBarometerVisibility
1:53 AM
Aug 2
56 °FClear.5 mph72%30.06 "Hg10 mi
12:53 AM54 °FClear.8 mph83%30.07 "Hg10 mi
11:53 PM
Aug 1
57 °FClear.9 mph74%30.07 "Hg10 mi
10:53 PM61 °FClear.5 mph65%30.07 "Hg10 mi
9:53 PM65 °FClear.5 mph51%30.07 "Hg10 mi
8:53 PM67 °FSunny.9 mph45%30.06 "Hg10 mi
7:53 PM70 °FSunny.14 mph41%30.06 "Hg10 mi
6:53 PM73 °FScattered clouds.13 mph34%30.06 "Hg10 mi
5:53 PM76 °FScattered clouds.12 mph33%30.07 "Hg10 mi
4:53 PM76 °FPassing clouds.6 mph31%30.07 "Hg10 mi
3:53 PM77 °FPassing clouds.15 mph31%30.07 "Hg10 mi
2:53 PM77 °FPassing clouds.10 mph26%30.07 "Hg10 mi
1:53 PM76 °FPassing clouds.10 mph30%30.08 "Hg10 mi
12:53 PM76 °FPassing clouds.9 mph29%30.09 "Hg10 mi
11:53 AM75 °FSunny.8 mph31%30.09 "Hg10 mi
10:53 AM73 °FSunny.10 mph33%30.09 "Hg10 mi
9:53 AM71 °FSunny.9 mph39%30.09 "Hg10 mi
8:53 AM68 °FSunny.6 mph51%30.08 "Hg10 mi
7:53 AM60 °FSunny.N/A62%30.09 "Hg10 mi
6:53 AM54 °FClear.8 mph72%30.10 "Hg10 mi
5:53 AM51 °FClear.10 mph77%30.09 "Hg10 mi
4:53 AM51 °FClear.10 mph83%30.07 "Hg10 mi
3:53 AM53 °FClear.7 mph77%30.09 "Hg10 mi
Weather by CustomWeather, © 2014

See weather overviewHow to use our weather pages